Location: Drignac
(45.1667°N, 2.0333°E)
Time: 13:19:39
(UTC+00:00)

Cosmos 1610 Rocket - Pass Details

Date: 29 March 2020
Orbit: 952 x 1003 km, 82.9° (Epoch: 27 May)

Event Time Altitude Azimuth Distance (km) Brightness Sun altitude
Rises 20:29:08 0° 353° (N) 3,692 8.1 -22.8°
Reaches altitude 10° 20:31:42 10° 357° (N) 2,732 7.3 -23.2°
Maximum altitude 20:37:56 66° 79° (E) 1,053 4.4 -24.1°
Enters shadow 20:39:07 54° 130° (SE) 1,158 4.5 -24.3°
